Year,Month,Day,Hour,Minute,Value (Times are PST for temperature in C)
2019,10,19,00,00,27.80
2019,10,19,00,01,27.80
2019,10,19,00,02,27.80
2019,10,19,00,03,27.80
2019,10,19,00,04,27.80
2019,10,19,00,05,27.80
2019,10,19,00,06,27.90
2019,10,19,00,07,27.90
2019,10,19,00,08,27.90
2019,10,19,00,09,27.90
2019,10,19,00,10,27.90
2019,10,19,00,11,27.90
2019,10,19,00,12,27.90
2019,10,19,00,13,27.80
2019,10,19,00,14,27.80
2019,10,19,00,15,27.80
2019,10,19,00,16,27.80
2019,10,19,00,17,27.80
2019,10,19,00,18,27.80
2019,10,19,00,19,27.80
2019,10,19,00,20,27.80
2019,10,19,00,21,27.80
2019,10,19,00,22,27.90
2019,10,19,00,23,27.80
2019,10,19,00,24,27.80
2019,10,19,00,25,27.80
2019,10,19,00,26,27.80
2019,10,19,00,27,27.80
2019,10,19,00,28,27.80
2019,10,19,00,29,27.80
2019,10,19,00,30,27.80
2019,10,19,00,31,27.80
2019,10,19,00,32,27.80
2019,10,19,00,33,27.80
2019,10,19,00,34,27.80
2019,10,19,00,35,27.80
2019,10,19,00,36,27.80
2019,10,19,00,37,27.80
2019,10,19,00,38,27.80
2019,10,19,00,39,27.80
2019,10,19,00,40,27.80
2019,10,19,00,41,27.80
2019,10,19,00,42,27.80
2019,10,19,00,43,27.80
2019,10,19,00,44,27.80
2019,10,19,00,45,27.80
2019,10,19,00,46,27.80
2019,10,19,00,47,27.70
2019,10,19,00,48,27.70
2019,10,19,00,49,27.70
2019,10,19,00,50,27.70
2019,10,19,00,51,27.70
2019,10,19,00,52,27.70
2019,10,19,00,53,27.70
2019,10,19,00,54,27.70
2019,10,19,00,55,27.70
2019,10,19,00,56,27.70
2019,10,19,00,57,27.70
2019,10,19,00,58,27.70
2019,10,19,00,59,27.70
2019,10,19,01,00,27.70
2019,10,19,01,01,27.70
2019,10,19,01,02,27.60
2019,10,19,01,03,27.60
2019,10,19,01,04,27.60
2019,10,19,01,05,27.60
2019,10,19,01,06,27.60
2019,10,19,01,07,27.60
2019,10,19,01,08,27.60
2019,10,19,01,09,27.60
2019,10,19,01,10,27.60
2019,10,19,01,11,27.60
2019,10,19,01,12,27.60
2019,10,19,01,13,27.60
2019,10,19,01,14,27.60
2019,10,19,01,15,27.60
2019,10,19,01,16,27.60
2019,10,19,01,17,27.60
2019,10,19,01,18,27.60
2019,10,19,01,19,27.60
2019,10,19,01,20,27.60
2019,10,19,01,21,27.60
2019,10,19,01,22,27.60
2019,10,19,01,23,27.50
2019,10,19,01,24,27.60
2019,10,19,01,25,27.60
2019,10,19,01,26,27.60
2019,10,19,01,27,27.60
2019,10,19,01,28,27.60
2019,10,19,01,29,27.60
2019,10,19,01,30,27.60
2019,10,19,01,31,27.60
2019,10,19,01,32,27.60
2019,10,19,01,33,27.60
2019,10,19,01,34,27.60
2019,10,19,01,35,27.60
2019,10,19,01,36,27.60
2019,10,19,01,37,27.60
2019,10,19,01,38,27.60
2019,10,19,01,39,27.60
2019,10,19,01,40,27.60
2019,10,19,01,41,27.60
2019,10,19,01,42,27.60
2019,10,19,01,43,27.60
2019,10,19,01,44,27.60
2019,10,19,01,45,27.60
2019,10,19,01,46,27.60
2019,10,19,01,47,27.60
2019,10,19,01,48,27.60
2019,10,19,01,49,27.60
2019,10,19,01,50,27.60
2019,10,19,01,51,27.60
2019,10,19,01,52,27.60
2019,10,19,01,53,27.60
2019,10,19,01,54,27.60
2019,10,19,01,55,27.60
2019,10,19,01,56,27.60
2019,10,19,01,57,27.60
2019,10,19,01,58,27.60
2019,10,19,01,59,27.60
2019,10,19,02,00,27.60
2019,10,19,02,01,27.60
2019,10,19,02,02,27.60
2019,10,19,02,03,27.60
2019,10,19,02,04,27.60
2019,10,19,02,05,27.50
2019,10,19,02,06,27.50
2019,10,19,02,07,27.50
2019,10,19,02,08,27.50
2019,10,19,02,09,27.50
2019,10,19,02,10,27.40
2019,10,19,02,11,27.40
2019,10,19,02,12,27.40
2019,10,19,02,13,27.40
2019,10,19,02,14,27.40
2019,10,19,02,15,27.40
2019,10,19,02,16,27.40
2019,10,19,02,17,27.50
2019,10,19,02,18,27.50
2019,10,19,02,19,27.50
2019,10,19,02,20,27.50
2019,10,19,02,21,27.50
2019,10,19,02,22,27.50
2019,10,19,02,23,27.50
2019,10,19,02,24,27.50
2019,10,19,02,25,27.50
2019,10,19,02,26,27.50
2019,10,19,02,27,27.50
2019,10,19,02,28,27.50
2019,10,19,02,29,27.50
2019,10,19,02,30,27.50
2019,10,19,02,31,27.50
2019,10,19,02,32,27.50
2019,10,19,02,33,27.50
2019,10,19,02,34,27.50
2019,10,19,02,35,27.50
2019,10,19,02,36,27.50
2019,10,19,02,37,27.50
2019,10,19,02,38,27.50
2019,10,19,02,39,27.50
2019,10,19,02,40,27.50
2019,10,19,02,41,27.50
2019,10,19,02,42,27.50
2019,10,19,02,43,27.50
2019,10,19,02,44,27.50
2019,10,19,02,45,27.50
2019,10,19,02,46,27.40
2019,10,19,02,47,27.40
2019,10,19,02,48,27.40
2019,10,19,02,49,27.40
2019,10,19,02,50,27.40
2019,10,19,02,51,27.40
2019,10,19,02,52,27.40
2019,10,19,02,53,27.40
2019,10,19,02,54,27.40
2019,10,19,02,55,27.40
2019,10,19,02,56,27.40
2019,10,19,02,57,27.40
2019,10,19,02,58,27.40
2019,10,19,02,59,27.40
2019,10,19,03,00,27.40
2019,10,19,03,01,27.40
2019,10,19,03,02,27.40
2019,10,19,03,03,27.40
2019,10,19,03,04,27.40
2019,10,19,03,05,27.40
2019,10,19,03,06,27.40
2019,10,19,03,07,27.40
2019,10,19,03,08,27.40
2019,10,19,03,09,27.40
2019,10,19,03,10,27.40
2019,10,19,03,11,27.40
2019,10,19,03,12,27.40
2019,10,19,03,13,27.40
2019,10,19,03,14,27.40
2019,10,19,03,15,27.40
2019,10,19,03,16,27.40
2019,10,19,03,17,27.30
2019,10,19,03,18,27.30
2019,10,19,03,19,27.30
2019,10,19,03,20,27.30
2019,10,19,03,21,27.30
2019,10,19,03,22,27.30
2019,10,19,03,23,27.30
2019,10,19,03,24,27.30
2019,10,19,03,25,27.30
2019,10,19,03,26,27.30
2019,10,19,03,27,27.30
2019,10,19,03,28,27.30
2019,10,19,03,29,27.30
2019,10,19,03,30,27.30
2019,10,19,03,31,27.40
2019,10,19,03,32,27.40
2019,10,19,03,33,27.40
2019,10,19,03,34,27.40
2019,10,19,03,35,27.40
2019,10,19,03,36,27.40
2019,10,19,03,37,27.40
2019,10,19,03,38,27.40
2019,10,19,03,39,27.40
2019,10,19,03,40,27.40
2019,10,19,03,41,27.40
2019,10,19,03,42,27.40
2019,10,19,03,43,27.40
2019,10,19,03,44,27.40
2019,10,19,03,45,27.40
2019,10,19,03,46,27.40
2019,10,19,03,47,27.40
2019,10,19,03,48,27.40
2019,10,19,03,49,27.40
2019,10,19,03,50,27.40
2019,10,19,03,51,27.40
2019,10,19,03,52,27.40
2019,10,19,03,53,27.40
2019,10,19,03,54,27.40
2019,10,19,03,55,27.40
2019,10,19,03,56,27.40
2019,10,19,03,57,27.40
2019,10,19,03,58,27.40
2019,10,19,03,59,27.40
2019,10,19,04,00,27.40
2019,10,19,04,01,27.40
2019,10,19,04,02,27.40
2019,10,19,04,03,27.40
2019,10,19,04,04,27.40
2019,10,19,04,05,27.40
2019,10,19,04,06,27.40
2019,10,19,04,07,27.40
2019,10,19,04,08,27.40
2019,10,19,04,09,27.40
2019,10,19,04,10,27.40
2019,10,19,04,11,27.40
2019,10,19,04,12,27.40
2019,10,19,04,13,27.40
2019,10,19,04,14,27.40
2019,10,19,04,15,27.40
2019,10,19,04,16,27.40
2019,10,19,04,17,27.40
2019,10,19,04,18,27.40
2019,10,19,04,19,27.40
2019,10,19,04,20,27.40
2019,10,19,04,21,27.40
2019,10,19,04,22,27.40
2019,10,19,04,23,27.30
2019,10,19,04,24,27.40
2019,10,19,04,25,27.40
2019,10,19,04,26,27.40
2019,10,19,04,27,27.40
2019,10,19,04,28,27.40
2019,10,19,04,29,27.40
2019,10,19,04,30,27.40
2019,10,19,04,31,27.40
2019,10,19,04,32,27.30
2019,10,19,04,33,27.30
2019,10,19,04,34,27.30
2019,10,19,04,35,27.30
2019,10,19,04,36,27.30
2019,10,19,04,37,27.30
2019,10,19,04,38,27.30
2019,10,19,04,39,27.30
2019,10,19,04,40,27.30
2019,10,19,04,41,27.30
2019,10,19,04,42,27.30
2019,10,19,04,43,27.30
2019,10,19,04,44,27.30
2019,10,19,04,45,27.30
2019,10,19,04,46,27.30
2019,10,19,04,47,27.30
2019,10,19,04,48,27.30
2019,10,19,04,49,27.30
2019,10,19,04,50,27.30
2019,10,19,04,51,27.30
2019,10,19,04,52,27.30
2019,10,19,04,53,27.30
2019,10,19,04,54,27.30
2019,10,19,04,55,27.30
2019,10,19,04,56,27.30
2019,10,19,04,57,27.30
2019,10,19,04,58,27.20
2019,10,19,04,59,27.20
2019,10,19,05,00,27.20
2019,10,19,05,01,27.20
2019,10,19,05,02,27.20
2019,10,19,05,03,27.20
2019,10,19,05,04,27.30
2019,10,19,05,05,27.30
2019,10,19,05,06,27.30
2019,10,19,05,07,27.30
2019,10,19,05,08,27.30
2019,10,19,05,09,27.30
2019,10,19,05,10,27.30
2019,10,19,05,11,27.30
2019,10,19,05,12,27.30
2019,10,19,05,13,27.30
2019,10,19,05,14,27.30
2019,10,19,05,15,27.30
2019,10,19,05,16,27.30
2019,10,19,05,17,27.30
2019,10,19,05,18,27.30
2019,10,19,05,19,27.30
2019,10,19,05,20,27.30
2019,10,19,05,21,27.30
2019,10,19,05,22,27.30
2019,10,19,05,23,27.30
2019,10,19,05,24,27.30
2019,10,19,05,25,27.30
2019,10,19,05,26,27.30
2019,10,19,05,27,27.30
2019,10,19,05,28,27.30
2019,10,19,05,29,27.30
2019,10,19,05,30,27.30
2019,10,19,05,31,27.30
2019,10,19,05,32,27.30
2019,10,19,05,33,27.30
2019,10,19,05,34,27.30
2019,10,19,05,35,27.30
2019,10,19,05,36,27.30
2019,10,19,05,37,27.30
2019,10,19,05,38,27.20
2019,10,19,05,39,27.20
2019,10,19,05,40,27.20
2019,10,19,05,41,27.20
2019,10,19,05,42,27.20
2019,10,19,05,43,27.20
2019,10,19,05,44,27.20
2019,10,19,05,45,27.20
2019,10,19,05,46,27.20
2019,10,19,05,47,27.20
2019,10,19,05,48,27.20
2019,10,19,05,49,27.10
2019,10,19,05,50,27.10
2019,10,19,05,51,27.10
2019,10,19,05,52,27.10
2019,10,19,05,53,27.10
2019,10,19,05,54,27.10
2019,10,19,05,55,27.10
2019,10,19,05,56,27.10
2019,10,19,05,57,27.00
2019,10,19,05,58,27.00
2019,10,19,05,59,27.00
2019,10,19,06,00,27.00
2019,10,19,06,01,27.00
2019,10,19,06,02,27.00
2019,10,19,06,03,27.00
2019,10,19,06,04,27.00
2019,10,19,06,05,27.00
2019,10,19,06,06,27.00
2019,10,19,06,07,27.00
2019,10,19,06,08,27.00
2019,10,19,06,09,27.00
2019,10,19,06,10,27.00
2019,10,19,06,11,27.00
2019,10,19,06,12,27.00
2019,10,19,06,13,27.00
2019,10,19,06,14,27.00
2019,10,19,06,15,27.00
2019,10,19,06,16,27.00
2019,10,19,06,17,27.00
2019,10,19,06,18,27.00
2019,10,19,06,19,27.00
2019,10,19,06,20,27.10
2019,10,19,06,21,27.00
2019,10,19,06,22,27.00
2019,10,19,06,23,27.00
2019,10,19,06,24,27.00
2019,10,19,06,25,27.00
2019,10,19,06,26,27.00
2019,10,19,06,27,27.00
2019,10,19,06,28,27.00
2019,10,19,06,29,27.00
2019,10,19,06,30,27.00
2019,10,19,06,31,27.00
2019,10,19,06,32,27.00
2019,10,19,06,33,27.00
2019,10,19,06,34,27.00
2019,10,19,06,35,27.00
2019,10,19,06,36,27.00
2019,10,19,06,37,27.00
2019,10,19,06,38,27.00
2019,10,19,06,39,27.00
2019,10,19,06,40,27.00
2019,10,19,06,41,27.00
2019,10,19,06,42,27.00
2019,10,19,06,43,27.00
2019,10,19,06,44,27.00
2019,10,19,06,45,27.00
2019,10,19,06,46,27.00
2019,10,19,06,47,27.00
2019,10,19,06,48,27.00
2019,10,19,06,49,27.00
2019,10,19,06,50,27.00
2019,10,19,06,51,27.10
2019,10,19,06,52,27.10
2019,10,19,06,53,27.10
2019,10,19,06,54,27.00
2019,10,19,06,55,27.00
2019,10,19,06,56,27.00
2019,10,19,06,57,27.00
2019,10,19,06,58,27.00
2019,10,19,06,59,27.00
2019,10,19,07,00,27.00
2019,10,19,07,01,27.00
2019,10,19,07,02,27.00
2019,10,19,07,03,27.00
2019,10,19,07,04,27.00
2019,10,19,07,05,27.00
2019,10,19,07,06,27.00
2019,10,19,07,07,27.00
2019,10,19,07,08,27.00
2019,10,19,07,09,27.00
2019,10,19,07,10,27.00
2019,10,19,07,11,27.00
2019,10,19,07,12,27.00
2019,10,19,07,13,27.00
2019,10,19,07,14,27.00
2019,10,19,07,15,27.00
2019,10,19,07,16,27.00
2019,10,19,07,17,27.00
2019,10,19,07,18,27.00
2019,10,19,07,19,27.00
2019,10,19,07,20,27.00
2019,10,19,07,21,27.00
2019,10,19,07,22,27.00
2019,10,19,07,23,27.00
2019,10,19,07,24,27.00
2019,10,19,07,25,27.00
2019,10,19,07,26,26.90
2019,10,19,07,27,26.90
2019,10,19,07,28,26.90
2019,10,19,07,29,26.90
2019,10,19,07,30,26.90
2019,10,19,07,31,26.90
2019,10,19,07,32,26.90
2019,10,19,07,33,26.90
2019,10,19,07,34,26.90
2019,10,19,07,35,26.90
2019,10,19,07,36,26.90
2019,10,19,07,37,26.90
2019,10,19,07,38,26.90
2019,10,19,07,39,26.90
2019,10,19,07,40,26.90
2019,10,19,07,41,26.90
2019,10,19,07,42,26.90
2019,10,19,07,43,26.90
2019,10,19,07,44,26.90
2019,10,19,07,45,26.90
2019,10,19,07,46,26.90
2019,10,19,07,47,26.90
2019,10,19,07,48,26.90
2019,10,19,07,49,26.90
2019,10,19,07,50,26.90
2019,10,19,07,51,27.00
2019,10,19,07,52,27.00
2019,10,19,07,53,27.00
2019,10,19,07,54,27.00
2019,10,19,07,55,27.00
2019,10,19,07,56,27.00
2019,10,19,07,57,27.00
2019,10,19,07,58,27.00
2019,10,19,07,59,27.10
2019,10,19,08,00,27.10
2019,10,19,08,01,27.10
2019,10,19,08,02,27.10
2019,10,19,08,03,27.10
2019,10,19,08,04,27.10
2019,10,19,08,05,27.10
2019,10,19,08,06,27.10
2019,10,19,08,07,27.10
2019,10,19,08,08,27.10
2019,10,19,08,09,27.10
2019,10,19,08,10,27.10
2019,10,19,08,11,27.10
2019,10,19,08,12,27.10
2019,10,19,08,13,27.10
2019,10,19,08,14,27.10
2019,10,19,08,15,27.10
2019,10,19,08,16,27.10
2019,10,19,08,17,27.10
2019,10,19,08,18,27.10
2019,10,19,08,19,27.10
2019,10,19,08,20,27.10
2019,10,19,08,21,27.10
2019,10,19,08,22,27.10
2019,10,19,08,23,27.10
2019,10,19,08,24,27.10
2019,10,19,08,25,27.10
2019,10,19,08,26,27.10
2019,10,19,08,27,27.10
2019,10,19,08,28,27.10
2019,10,19,08,29,27.10
2019,10,19,08,30,27.10
2019,10,19,08,31,27.10
2019,10,19,08,32,27.10
2019,10,19,08,33,27.10
2019,10,19,08,34,27.10
2019,10,19,08,35,27.10
2019,10,19,08,36,27.10
2019,10,19,08,37,27.10
2019,10,19,08,38,27.10
2019,10,19,08,39,27.20
2019,10,19,08,40,27.20
2019,10,19,08,41,27.20
2019,10,19,08,42,27.20
2019,10,19,08,43,27.20
2019,10,19,08,44,27.20
2019,10,19,08,45,27.20
2019,10,19,08,46,27.20
2019,10,19,08,47,27.20
2019,10,19,08,48,27.20
2019,10,19,08,49,27.30
2019,10,19,08,50,27.30
2019,10,19,08,51,27.30
2019,10,19,08,52,27.30
2019,10,19,08,53,27.30
2019,10,19,08,54,27.30
2019,10,19,08,55,27.30
2019,10,19,08,56,27.30
2019,10,19,08,57,27.30
2019,10,19,08,58,27.30
2019,10,19,08,59,27.30
2019,10,19,09,00,27.30
2019,10,19,09,01,27.30
2019,10,19,09,02,27.40
2019,10,19,09,03,27.40
2019,10,19,09,04,27.40
2019,10,19,09,05,27.40
2019,10,19,09,06,27.40
2019,10,19,09,07,27.40
2019,10,19,09,08,27.40
2019,10,19,09,09,27.40
2019,10,19,09,10,27.40
2019,10,19,09,11,27.50
2019,10,19,09,12,27.50
2019,10,19,09,13,27.50
2019,10,19,09,14,27.50
2019,10,19,09,15,27.50
2019,10,19,09,16,27.50
2019,10,19,09,17,27.50
2019,10,19,09,18,27.50
2019,10,19,09,19,27.50
2019,10,19,09,20,27.50
2019,10,19,09,21,27.50
2019,10,19,09,22,27.60
2019,10,19,09,23,27.60
2019,10,19,09,24,27.60
2019,10,19,09,25,27.60
2019,10,19,09,26,27.70
2019,10,19,09,27,27.70
2019,10,19,09,28,27.70
2019,10,19,09,29,27.70
2019,10,19,09,30,27.70
2019,10,19,09,31,27.80
2019,10,19,09,32,27.80
2019,10,19,09,33,27.80
2019,10,19,09,34,27.80
2019,10,19,09,35,27.80
2019,10,19,09,36,27.80
2019,10,19,09,37,27.90
2019,10,19,09,38,27.90
2019,10,19,09,39,27.90
2019,10,19,09,40,28.00
2019,10,19,09,41,28.00
2019,10,19,09,42,28.00
2019,10,19,09,43,28.00
2019,10,19,09,44,28.10
2019,10,19,09,45,28.10
2019,10,19,09,46,28.10
2019,10,19,09,47,28.10
2019,10,19,09,48,28.10
2019,10,19,09,49,28.20
2019,10,19,09,50,28.20
2019,10,19,09,51,28.20
2019,10,19,09,52,28.30
2019,10,19,09,53,28.30
2019,10,19,09,54,28.30
2019,10,19,09,55,28.30
2019,10,19,09,56,28.40
2019,10,19,09,57,28.40
2019,10,19,09,58,28.40
2019,10,19,09,59,28.40
2019,10,19,10,00,28.40
2019,10,19,10,01,28.40
2019,10,19,10,02,28.40
2019,10,19,10,03,28.40
2019,10,19,10,04,28.40
2019,10,19,10,05,28.40
2019,10,19,10,06,28.40
2019,10,19,10,07,28.40
2019,10,19,10,08,28.40
2019,10,19,10,09,28.40
2019,10,19,10,10,28.40
2019,10,19,10,11,28.40
2019,10,19,10,12,28.40
2019,10,19,10,13,28.40
2019,10,19,10,14,28.40
2019,10,19,10,15,28.40
2019,10,19,10,16,28.30
2019,10,19,10,17,28.30
2019,10,19,10,18,28.30
2019,10,19,10,19,28.30
2019,10,19,10,20,28.30
2019,10,19,10,21,28.30
2019,10,19,10,22,28.30
2019,10,19,10,23,28.30
2019,10,19,10,24,28.30
2019,10,19,10,25,28.30
2019,10,19,10,26,28.30
2019,10,19,10,27,28.30
2019,10,19,10,28,28.30
2019,10,19,10,29,28.30
2019,10,19,10,30,28.40
2019,10,19,10,31,28.40
2019,10,19,10,32,28.40
2019,10,19,10,33,28.40
2019,10,19,10,34,28.40
2019,10,19,10,35,28.40
2019,10,19,10,36,28.40
2019,10,19,10,37,28.40
2019,10,19,10,38,28.50
2019,10,19,10,39,28.50
2019,10,19,10,40,28.50
2019,10,19,10,41,28.50
2019,10,19,10,42,28.40
2019,10,19,10,43,28.50
2019,10,19,10,44,28.50
2019,10,19,10,45,28.50
2019,10,19,10,46,28.60
2019,10,19,10,47,28.60
2019,10,19,10,48,28.70
2019,10,19,10,49,28.70
2019,10,19,10,50,28.70
2019,10,19,10,51,28.70
2019,10,19,10,52,28.70
2019,10,19,10,53,28.70
2019,10,19,10,54,28.80
2019,10,19,10,55,28.80
2019,10,19,10,56,28.80
2019,10,19,10,57,28.90
2019,10,19,10,58,28.90
2019,10,19,10,59,29.00
2019,10,19,11,00,29.10
2019,10,19,11,01,29.10
2019,10,19,11,02,29.10
2019,10,19,11,03,29.10
2019,10,19,11,04,29.10
2019,10,19,11,05,29.10
2019,10,19,11,06,29.10
2019,10,19,11,07,29.10
2019,10,19,11,08,29.20
2019,10,19,11,09,29.20
2019,10,19,11,10,29.20
2019,10,19,11,11,29.20
2019,10,19,11,12,29.30
2019,10,19,11,13,29.30
2019,10,19,11,14,29.30
2019,10,19,11,15,29.30
2019,10,19,11,16,29.30
2019,10,19,11,17,29.40
2019,10,19,11,18,29.40
2019,10,19,11,19,29.40
2019,10,19,11,20,29.40
2019,10,19,11,21,29.50
2019,10,19,11,22,29.60
2019,10,19,11,23,29.70
2019,10,19,11,24,29.70
2019,10,19,11,25,29.80
2019,10,19,11,26,29.80
2019,10,19,11,27,29.90
2019,10,19,11,28,29.90
2019,10,19,11,29,29.90
2019,10,19,11,30,29.90
2019,10,19,11,31,30.00
2019,10,19,11,32,30.10
2019,10,19,11,33,30.10
2019,10,19,11,34,30.20
2019,10,19,11,35,30.10
2019,10,19,11,36,30.10
2019,10,19,11,37,30.10
2019,10,19,11,38,30.10
2019,10,19,11,39,30.10
2019,10,19,11,40,30.00
2019,10,19,11,41,30.00
2019,10,19,11,42,30.10
2019,10,19,11,43,30.10
2019,10,19,11,44,30.10
2019,10,19,11,45,30.10
2019,10,19,11,46,30.00
2019,10,19,11,47,30.00
2019,10,19,11,48,30.00
2019,10,19,11,49,30.00
2019,10,19,11,50,30.00
2019,10,19,11,51,29.90
2019,10,19,11,52,29.90
2019,10,19,11,53,29.90
2019,10,19,11,54,29.90
2019,10,19,11,55,29.90
2019,10,19,11,56,29.90
2019,10,19,11,57,29.90
2019,10,19,11,58,29.90
2019,10,19,11,59,29.90
2019,10,19,12,00,30.00
2019,10,19,12,01,30.00
2019,10,19,12,02,30.10
2019,10,19,12,03,30.10
2019,10,19,12,04,30.20
2019,10,19,12,05,30.20
2019,10,19,12,06,30.20
2019,10,19,12,07,30.20
2019,10,19,12,08,30.20
2019,10,19,12,09,30.30
2019,10,19,12,10,30.40
2019,10,19,12,11,30.40
2019,10,19,12,12,30.50
2019,10,19,12,13,30.50
2019,10,19,12,14,30.60
2019,10,19,12,15,30.60
2019,10,19,12,16,30.60
2019,10,19,12,17,30.60
2019,10,19,12,18,30.60
2019,10,19,12,19,30.60
2019,10,19,12,20,30.60
2019,10,19,12,21,30.60
2019,10,19,12,22,30.60
2019,10,19,12,23,30.70
2019,10,19,12,24,30.70
2019,10,19,12,25,30.80
2019,10,19,12,26,30.80
2019,10,19,12,27,30.80
2019,10,19,12,28,30.90
2019,10,19,12,29,30.90
2019,10,19,12,30,30.80
2019,10,19,12,31,30.80
2019,10,19,12,32,30.80
2019,10,19,12,33,30.80
2019,10,19,12,34,30.90
2019,10,19,12,35,31.00
2019,10,19,12,36,31.00
2019,10,19,12,37,31.10
2019,10,19,12,38,31.10
2019,10,19,12,39,31.20
2019,10,19,12,40,31.20
2019,10,19,12,41,31.30
2019,10,19,12,42,31.30
2019,10,19,12,43,31.30
2019,10,19,12,44,31.40
2019,10,19,12,45,31.40
2019,10,19,12,46,31.50
2019,10,19,12,47,31.60
2019,10,19,12,48,31.70
2019,10,19,12,49,31.80
2019,10,19,12,50,31.90
2019,10,19,12,51,31.90
2019,10,19,12,52,31.80
2019,10,19,12,53,31.80
2019,10,19,12,54,31.80
2019,10,19,12,55,31.70
2019,10,19,12,56,31.70
2019,10,19,12,57,31.70
2019,10,19,12,58,31.70
2019,10,19,12,59,31.80
2019,10,19,13,00,31.80
2019,10,19,13,01,31.80
2019,10,19,13,02,31.90
2019,10,19,13,03,31.90
2019,10,19,13,04,32.00
2019,10,19,13,05,32.00
2019,10,19,13,06,32.00
2019,10,19,13,07,32.00
2019,10,19,13,08,32.00
2019,10,19,13,09,32.00
2019,10,19,13,10,32.10
2019,10,19,13,11,32.10
2019,10,19,13,12,32.10
2019,10,19,13,13,32.10
2019,10,19,13,14,32.10
2019,10,19,13,15,32.20
2019,10,19,13,16,32.20
2019,10,19,13,17,32.20
2019,10,19,13,18,32.20
2019,10,19,13,19,32.20
2019,10,19,13,20,32.20
2019,10,19,13,21,32.20
2019,10,19,13,22,32.30
2019,10,19,13,23,32.30
2019,10,19,13,24,32.40
2019,10,19,13,25,32.40
2019,10,19,13,26,32.40
2019,10,19,13,27,32.40
2019,10,19,13,28,32.30
2019,10,19,13,29,32.40
2019,10,19,13,30,32.40
2019,10,19,13,31,32.50
2019,10,19,13,32,32.50
2019,10,19,13,33,32.60
2019,10,19,13,34,32.60
2019,10,19,13,35,32.60
2019,10,19,13,36,32.60
2019,10,19,13,37,32.60
2019,10,19,13,38,32.50
2019,10,19,13,39,32.60
2019,10,19,13,40,32.60
2019,10,19,13,41,32.60
2019,10,19,13,42,32.60
2019,10,19,13,43,32.60
2019,10,19,13,44,32.50
2019,10,19,13,45,32.50
2019,10,19,13,46,32.50
2019,10,19,13,47,32.50
2019,10,19,13,48,32.50
2019,10,19,13,49,32.50
2019,10,19,13,50,32.60
2019,10,19,13,51,32.50
2019,10,19,13,52,32.50
2019,10,19,13,53,32.40
2019,10,19,13,54,32.30
2019,10,19,13,55,32.30
2019,10,19,13,56,32.20
2019,10,19,13,57,32.20
2019,10,19,13,58,32.10
2019,10,19,13,59,32.10
2019,10,19,14,00,32.00
2019,10,19,14,01,32.00
2019,10,19,14,02,32.00
2019,10,19,14,03,31.90
2019,10,19,14,04,31.90
2019,10,19,14,05,31.90
2019,10,19,14,06,31.80
2019,10,19,14,07,31.80
2019,10,19,14,08,31.80
2019,10,19,14,09,31.80
2019,10,19,14,10,31.90
2019,10,19,14,11,32.00
2019,10,19,14,12,32.10
2019,10,19,14,13,32.10
2019,10,19,14,14,32.10
2019,10,19,14,15,32.20
2019,10,19,14,16,32.20
2019,10,19,14,17,32.20
2019,10,19,14,18,32.30
2019,10,19,14,19,32.30
2019,10,19,14,20,32.40
2019,10,19,14,21,32.50
2019,10,19,14,22,32.50
2019,10,19,14,23,32.60
2019,10,19,14,24,32.60
2019,10,19,14,25,32.60
2019,10,19,14,26,32.50
2019,10,19,14,27,32.50
2019,10,19,14,28,32.50
2019,10,19,14,29,32.50
2019,10,19,14,30,32.40
2019,10,19,14,31,32.40
2019,10,19,14,32,32.40
2019,10,19,14,33,32.40
2019,10,19,14,34,32.40
2019,10,19,14,35,32.30
2019,10,19,14,36,32.30
2019,10,19,14,37,32.30
2019,10,19,14,38,32.30
2019,10,19,14,39,32.30
2019,10,19,14,40,32.30
2019,10,19,14,41,32.30
2019,10,19,14,42,32.30
2019,10,19,14,43,32.30
2019,10,19,14,44,32.20
2019,10,19,14,45,32.20
2019,10,19,14,46,32.10
2019,10,19,14,47,32.10
2019,10,19,14,48,32.00
2019,10,19,14,49,32.00
2019,10,19,14,50,32.00
2019,10,19,14,51,32.00
2019,10,19,14,52,32.00
2019,10,19,14,53,32.00
2019,10,19,14,54,32.00
2019,10,19,14,55,32.00
2019,10,19,14,56,32.00
2019,10,19,14,57,32.00
2019,10,19,14,58,31.90
2019,10,19,14,59,32.00
2019,10,19,15,00,32.00
2019,10,19,15,01,31.90
2019,10,19,15,02,31.90
2019,10,19,15,03,31.90
2019,10,19,15,04,31.90
2019,10,19,15,05,31.80
2019,10,19,15,06,31.80
2019,10,19,15,07,31.80
2019,10,19,15,08,31.80
2019,10,19,15,09,31.80
2019,10,19,15,10,31.80
2019,10,19,15,11,31.80
2019,10,19,15,12,31.80
2019,10,19,15,13,31.80
2019,10,19,15,14,31.80
2019,10,19,15,15,31.80
2019,10,19,15,16,31.90
2019,10,19,15,17,31.90
2019,10,19,15,18,31.90
2019,10,19,15,19,31.90
2019,10,19,15,20,31.90
2019,10,19,15,21,31.90
2019,10,19,15,22,31.90
2019,10,19,15,23,31.80
2019,10,19,15,24,31.80
2019,10,19,15,25,31.80
2019,10,19,15,26,31.70
2019,10,19,15,27,31.70
2019,10,19,15,28,31.70
2019,10,19,15,29,31.70
2019,10,19,15,30,31.80
2019,10,19,15,31,31.80
2019,10,19,15,32,31.80
2019,10,19,15,33,31.90
2019,10,19,15,34,32.00
2019,10,19,15,35,32.00
2019,10,19,15,36,32.10
2019,10,19,15,37,32.10
2019,10,19,15,38,32.20
2019,10,19,15,39,32.20
2019,10,19,15,40,32.20
2019,10,19,15,41,32.20
2019,10,19,15,42,32.30
2019,10,19,15,43,32.30
2019,10,19,15,44,32.30
2019,10,19,15,45,32.30
2019,10,19,15,46,32.40
2019,10,19,15,47,32.40
2019,10,19,15,48,32.40
2019,10,19,15,49,32.40
2019,10,19,15,50,32.40
2019,10,19,15,51,32.40
2019,10,19,15,52,32.40
2019,10,19,15,53,32.40
2019,10,19,15,54,32.40
2019,10,19,15,55,32.40
2019,10,19,15,56,32.40
2019,10,19,15,57,32.40
2019,10,19,15,58,32.30
2019,10,19,15,59,32.30
2019,10,19,16,00,32.30
2019,10,19,16,01,32.30
2019,10,19,16,02,32.20
2019,10,19,16,03,32.20
2019,10,19,16,04,32.30
2019,10,19,16,05,32.30
2019,10,19,16,06,32.30
2019,10,19,16,07,32.30
2019,10,19,16,08,32.30
2019,10,19,16,09,32.30
2019,10,19,16,10,32.20
2019,10,19,16,11,32.20
2019,10,19,16,12,32.10
2019,10,19,16,13,31.90
2019,10,19,16,14,31.70
2019,10,19,16,15,31.60
2019,10,19,16,16,31.40
2019,10,19,16,17,31.40
2019,10,19,16,18,31.30
2019,10,19,16,19,31.20
2019,10,19,16,20,31.10
2019,10,19,16,21,30.90
2019,10,19,16,22,30.80
2019,10,19,16,23,30.60
2019,10,19,16,24,30.40
2019,10,19,16,25,30.30
2019,10,19,16,26,30.30
2019,10,19,16,27,30.20
2019,10,19,16,28,30.10
2019,10,19,16,29,30.00
2019,10,19,16,30,30.00
2019,10,19,16,31,29.90
2019,10,19,16,32,29.90
2019,10,19,16,33,29.90
2019,10,19,16,34,29.90
2019,10,19,16,35,29.80
2019,10,19,16,36,29.80
2019,10,19,16,37,29.80
2019,10,19,16,38,29.80
2019,10,19,16,39,29.80
2019,10,19,16,40,29.80
2019,10,19,16,41,29.80
2019,10,19,16,42,29.90
2019,10,19,16,43,29.90
2019,10,19,16,44,29.90
2019,10,19,16,45,29.90
2019,10,19,16,46,29.90
2019,10,19,16,47,30.00
2019,10,19,16,48,30.00
2019,10,19,16,49,30.00
2019,10,19,16,50,30.00
2019,10,19,16,51,30.00
2019,10,19,16,52,30.00
2019,10,19,16,53,30.00
2019,10,19,16,54,30.10
2019,10,19,16,55,30.10
2019,10,19,16,56,30.10
2019,10,19,16,57,30.10
2019,10,19,16,58,30.10
2019,10,19,16,59,30.20
2019,10,19,17,00,30.20
2019,10,19,17,01,30.20
2019,10,19,17,02,30.20
2019,10,19,17,03,30.20
2019,10,19,17,04,30.20
2019,10,19,17,05,30.20
2019,10,19,17,06,30.20
2019,10,19,17,07,30.20
2019,10,19,17,08,30.20
2019,10,19,17,09,30.20
2019,10,19,17,10,30.20
2019,10,19,17,11,30.20
2019,10,19,17,12,30.20
2019,10,19,17,13,30.20
2019,10,19,17,14,30.20
2019,10,19,17,15,30.20
2019,10,19,17,16,30.10
2019,10,19,17,17,30.00
2019,10,19,17,18,30.00
2019,10,19,17,19,29.90